Airfield :
LOGIN :

Register | Disclaimer

   EN    FR    IT 

 










Legend :    VFR   Marginal VFR   IFR   Intensive IFR   Very Intensive IFR
Visi :
Ceiling :
>= 8 km
>= 3000ft
5 to 8 km
1000 to 3000 ft
1500m to 5 km
500 to 1000 ft
800 to 1500m
200 to 500 ft
< 800m
< 200 ft
Symbols :   Thunderstorms  Fog  Heavy snow  Heavy precipitations  Wind > 20 kt
SIGMETs :     Misc.  Thunderstorms  Icing  Turbulence  Mountain Waves  Volcanic Ashes







- Airport Elevation : 116 ft
- IATA code : ISC
- Download approach charts


EGHE - Scilly Isles / St Mary's

CURRENT METAR :
  • 260920Z 03012KT 1800 BR SCT002 16/16 Q1024

EXPIRED METARs :
  • 260850Z 03012KT 1800 BR FEW000 16/15 Q1024
  • 260820Z 03010KT 9999 4000NE FEW011 SCT024 17/16 Q1024
  • 260750Z 03008KT 9999 4000NE FEW004 SCT013 16/16 Q1024
  • 260720Z 03008KT 8000 FEW004 16/16 Q1024
  • 260650Z 03008KT 5000 VCFG FEW002 15/15 Q1023

TAF AMD TAF EGHE
Valid from the 26 at 09:00 until the 26 at 18:00 UTC


260900Z 2609/2618 04014KT 8000 FEW004
TEMPO 2609/2612 2000 BR BKN004
PROB40
TEMPO 2612/2618 05017G27KT 9999 BKN006
No reported NOTAMs for that airfield.



MET'MAP, your aeronautical weather chart ! - Copyright ORBIFLY December 2007 - Disclaimer

ORBIFLY MET'MAP TEAM :

Programming & Development : Alexandra Zaïnal
Concept & Development : Baudouin d'Aumeries
Co-Development & Prog : Marc-Olivier Méhu
Technical & hardware support : Manuel Goepfert

Contact : metmap@orbifly.com




SOURCES & CREDITS :

   NOAA